Timeline UpdatesTrip UpdatesNews PostsPvt Posts♥♥Travel TipsAdmin PostsConv PostsFollowed PostsChat RequestsBlog PostsPNR Posts

Disclaimer
Search
 
 
Fri Oct 31, 2014 17:30:58 ISTHomeTrainsΣChainsAtlasPNRForumGalleryNewsFAQTripsMembersLoginFeedback
Latest...
Change in timings ex - Originating and Terminating Station ex 01.09.2014
Sun Aug 31, 2014 (07:08AM)
⇐ Return Journey: Train# 15484

14083⇒15483/Sikkim Mahananda Express

NO Time-Table Change.
Sep 29 2014 (1:56PM)
Change Departure Station:
Change Arrival Station:
Post a Train Travel TipPost a Train Travel Tip **new
Post a Comment/Question/Picture/VideoPost a Comment/Question/Picture/Video
Pantry/Catering
✓ Pantry Car Avbl
✓ Catering Avbl
RSA - Rake Sharing
Rake/Coach Composition
LOCO-SLR-GS-GS-GS-AB-B1-PC-S11-S10-S9-S8-S7-S6-S5-S4-S3-S2-S1-GS-GS-GS-SLR
Loco
SGUJ WDP-4 (APDJ to PNBE), GZB/MGS WAP-4 (PNBE to DLI)
News    PNR    Forum    Time-Table    Availability    Fare Chart    Map    Arr/Dep History    Trips    Gallery    ΣChains    X/O    Timeline    
Travel Time: 15h 35m    29 halts    Distance: 659 km    Avg Speed: 42 km/hr
Type: Mail/Express
Zone: NFR/Northeast Frontier
Departs @ 09:50 (Avg 1h 52m late)
Platform# 1
SMTWTFS
Alipur Duar Junction/APDJ 
Arrives @ 01:25 +1 night (Avg 1h 57m late)
Platform# 4
SMTWTFS
Patna Junction/PNBE 

29 halts. 130 intermediate Stations between Alipur Duar Junction and Patna Junction

Show ALL intermediate Stations  

#TrkCodeStation NameX/OArrivesAvgDepartsAvgHaltPFDay#KmSpeedElevZoneAddress
1|--|APDJAlipur Duar Junction (3)»  -09:50+1:52110.07053mNFRDist - Alipurduar, West Bengal
2|--|HSAHasimara (3)X  10:20+2:0210:22+2:032m--134.863123mNFRDist - Alipurduar, West Bengal
3|--|DLODalgaon (3)  10:46+2:0710:47+2:081m1160.138 NFRDist : Alipurduar, West Bengal
4|--|BNVBinnaguri (3)  11:01+2:0111:02+1:491m--169.165132mNFRDist : jalpaiguri, West Bengal
5|--|NMZNew Mal Junction (3)  11:43+1:3611:48+1:355m--1113.443161mNFRDist - Jalpaiguri, West Bengal
6|--|SGUJSiliguri Junction (5)X  12:55+1:4213:00+1:305m--1161.212120mNFRDist-Darjeeling Siliguri-734001, West Bengal
7|--|NJPNew Jalpaiguri Junction (8)X  13:35+1:4513:55+1:4820m31168.577114mNFRCity-Siliguri . Dist-Jalpaiguri, West Bengal
8%==%AUBAluabari Road (2)O  14:39+1:4814:41+1:372m21225.2630mNFRDist - uttar Dinajpur, West Bengal
9%==%KNEKishanGanj (3)O  15:10+1:4415:15+1:445m21255.87152mNFRKishanganj, Bihar
10%==%DLKDalkhola (3)X  15:39+1:4415:40+1:451m101284.35844mNFRDalkola, West Bengal
11%==%BOEBarsoi Junction (3)X  16:10+1:5116:12+1:522m--1313.45337mNFRdist- katihar, Bihar
12%==%AZRAzamnagar Road (3)X  16:27+1:5616:28+1:561m--1326.73134mNFRAzamnagar, Bihar
13%--%LAVLabha (2)  17:10+2:0117:11+2:031m11348.41529mNFRDist : Katihar, Bihar
14%--%KIRKatihar Junction (7)X  18:45+1:4419:00+1:4215m51371.44635mNFRKatihar 854105, Bihar
15%-=%SMOSemapurX  19:15+1:2819:16+1:281m--1382.96535mECRKatihar, Bihar
16%==%CRRKaragola Road  19:26+1:2919:27+1:301m--1393.67836mECRLachhmipur, Bihar
17%=-%KUEKurselaX  19:40+1:3919:41+1:421m--1410.64831mECRNH 31, Bihar
18%==%NNANaugachia (3)X  20:04+1:4420:05+1:451m--1429.16437mECRBhagalpur, Bihar
19%==%THBThana Bihpur Junction (3)  20:20+1:4920:21+1:501m--1445.05139mECRThana Bihpur, Bihar
20%==%NNRNarayanpur (2)X  20:30+1:5120:31+1:591m--1452.75439mECRNarayanpur, Bihar
21%==%PSRPasraha (3)  20:44+1:5720:45+2:001m--1464.35341mECRPasraha, Bihar
22%==%MSKMahes Khunt (2)X  20:59+2:0221:00+2:041m--1476.65737mECRMaheshkhunt, Bihar
23%==%MNEMansi Junction (4)XO  21:11+2:1021:12+2:131m--1487.03343mECRMansi, Bihar
24%=-|KGGKhagaria Junction (3)X  21:28+2:1421:29+2:151m--1495.86243mECRKhagaria, Bihar
25%==%SKJSahibpur Kamal Junction (2)  21:41+2:1721:42+2:111m--1508.24241mECRShahpur Kamal, Bihar
26%==%LKNLakhminia (3)X  21:56+2:1221:57+2:131m--1517.93645mECRBegusarai, Bihar
27%==%BGSBegusarai (3)  22:27+2:0322:28+2:021m--1535.72246mECRBegusarai, Bihar
28%--/BJUBarauni Junction (9)X  23:05+1:5123:10+1:525m11549.22849mECRBegusarai, Bihar
29/--/MKAMokama Junction (4)  23:54+2:2123:56+2:232m31569.88848mECRPatna, Bihar
30/==/BKPBakhtiyarpur Junction (5)X  00:26+2:1500:28+2:162m--2613.74851mECRPatna, Bihar
31/==/PNBEPatna Junction (10)•X  01:25+1:5701:50+2:0225m42659.13557mECRPatna 800001, Bihar
32/==/DNRDanapur (5)  02:06+2:0402:08+2:042m--2668.59158mECRKhagaul, Bihar
33/==/ARAAra Junction (3)X  02:34+2:2902:36+2:292m--2708.07163mECRDistt: Bhojpur Ph 06182-233411, Bihar
34/==/BXRBuxar (3)X  03:34+2:2403:36+2:242m22776.54767mECRBuxar, Bihar
35/==/MGSMughal Sarai Junction (8)  05:35+1:4505:45+1:5110m42870.44583mECRDistt: Chandauli Pin 232101, Uttar Pradesh
36/==/MZPMirzapur (3)XO  07:09+2:2307:10+2:261m--2933.64088mNCRMirzapur, Uttar Pradesh
37/==/BDLVindhyachal (3)  07:21+2:1007:22+2:121m--2940.97788mNCRMirzapur, Uttar Pradesh
38/==/NYNNaini Junction (4)  08:20+3:0308:22+3:052m221015.72498mNCRAllahabad, Uttar Pradesh
39/==/ALDAllahabad Junction (10)XOO  08:40+3:1308:55+3:2015m321022.864100mNCRAllahabad 211003, Uttar Pradesh
40/==/FTPFatehpur (3)  10:44+2:5810:45+2:591m--21139.552120mNCRFatehpur, Uttar Pradesh
41/==/CNBKanpur Central (10)X  12:15+2:5812:25+3:0110m521217.129128mNCRKANPUR-208 001, Uttar Pradesh
42/==/PNKPanki (3)XO  12:49+3:0312:50+3:031m--21228.637129mNCRKANPUR-208 020, Uttar Pradesh
43/==/RURARura (4)  13:43+2:4313:44+2:441m--21261.457137mNCRJhinjhak, Uttar Pradesh
44/==/JJKJhinjhak (3)  14:04+2:3814:05+2:391m321280.570140mNCRAuraiya, Uttar Pradesh
45/==/PHDPhaphund (4)  14:22+2:5314:23+2:561m--21300.363146mNCRdist. Auraiya, Uttar Pradesh
46/==/ULDAchalda (3)X  14:39+2:4014:40+2:451m--21317.165147mNCRDist. Auraiya(05688-1072), Uttar Pradesh
47/==/BNTBharthana (3)X  14:58+2:3914:59+2:451m--21336.652147mNCRBharthana, Uttar Pradesh
48/==/ETWEtawah (5)  15:22+2:2015:23+2:211m221356.574154mNCRDistt. Etawah, Uttar Pradesh
49/==/SKBShikohabad Junction (4)  16:08+2:2416:09+2:271m321411.957166mNCRDistrict Firozabad, Uttar Pradesh
50/==/FZDFirozabad (4)XO  16:30+3:0416:31+3:061m321431.816164mNCRFirozabad, Uttar Pradesh
51/==/TDLTundla Junction (5)XO  17:35+2:2117:45+2:2110m221448.370167mNCRDistt.Firozabad, Uttar Pradesh
52/==/JLSJalesar Road (1)X  18:09+2:2318:10+2:241m121476.255172mNCRMDR 106W, Uttar Pradesh
53/==/HRSHathras Junction (3)X  18:32+2:1218:33+2:131m--21496.382183mNCRMahamaya Nagar(05722-242803), Uttar Pradesh
54/==/ALJNAligarh Junction (4)XO  18:55+2:2819:00+2:285m221526.449192mNCRAligarh, Uttar Pradesh
55/==/KRJKhurja Junction (4)XO  19:53+1:1919:58+1:195m--21569.935199mNCRBulandshahr, Uttar Pradesh
56/==/GZBGhaziabad Junction (6)X  21:45+1:4621:47+1:462m321632.648217mNRGhaziabad, Uttar Pradesh
57/==/DSAShahdara Junction (4)  22:04+2:5622:05+2:561m--21646.211212mNRCircular Rd, Delhi NCT
58/==/DLIOld Delhi Junction (16)  22:40+2:26-1121652.5-219mNRNear Chandni Chowk Metro Station, Delhi NCT
Scroll to Top
Scroll to Bottom